Gainesville, FL

1:32 PM EST on December 06, 2019 (GMT -0500)
Gainesville Regional

Weather History for KGNV - October, 2019

Change the Weather History Date:

Wednesday, October 30, 2019

  Actual Average Record
Temperature  
Mean Temperature 81 °F 67 °F  
Max Temperature 89 °F 78 °F 89 °F (1917)
Min Temperature 72 °F 56 °F 34 °F (1973)
Degree Days  
Heating Degree Days 0 2  
Month to date heating degree days 0 24  
Since 1 July heating degree days 0 24  
Cooling Degree Days 16 4  
Month to date cooling degree days 330 207  
Year to date cooling degree days 3346 2547  
Growing Degree Days 30 (Base 50)    
Moisture  
Dew Point 73 °F    
Average Humidity 80    
Maximum Humidity 100    
Minimum Humidity 59    
Precipitation  
Precipitation 0.00 in 0.06 in 4.04 in (1993)
Month to date precipitation 3.59 2.81  
Year to date precipitation 41.83 42.80  
Snow  
Snow 0.00 in 0.00 in 0.00 in ()
Month to date snowfall 0.0 0.0  
Since 1 July snowfall 0.0 0.0  
Since 1 September snowfall 0.0 0.0  
Snow Depth 0.00 in    
Sea Level Pressure  
Sea Level Pressure 30.09 in    
Wind  
Wind Speed 3 mph (ESE)    
Max Wind Speed 13 mph    
Max Gust Speed 15 mph    
Visibility 7 miles    
Events Fog    
T = Trace of Precipitation, MM = Missing Value Source: NWS Daily Summary

Daily Weather History Graph

Daily Weather History Graph

Search for Another Location

Airport or City:

Astronomy

Oct. 30, 2019 Rise Set
Actual Time 7:40 AM EDT 6:44 PM EDT
Civil Twilight 7:16 AM EDT 7:08 PM EDT
Nautical Twilight 6:48 AM EDT 7:36 PM EDT
Astronomical Twilight 6:20 AM EDT 8:04 PM EDT
Moon 10:13 AM EDT (10/30) 9:01 PM EDT (10/30)
Length of Visible Light 11h 52m
Length of Day
11h 03m
Waxing Crescent, 8% of the Moon is Illuminated
Oct 30
Waxing Crescent
Nov 4
First Quarter
Nov 12
Full
Nov 19
Last Quarter
Nov 26
New

Hourly Weather History & Observations

Time (EDT) Temp. Heat Index Dew Point Humidity Pressure Visibility Wind Dir Wind Speed Gust Speed Precip Events Conditions
12:53 AM 73.9 °F - 71.1 °F 91% 30.11 in 10.0 mi Calm Calm - 0.00 in   Scattered Clouds
1:23 AM 73.9 °F - 71.1 °F 91% 30.11 in 10.0 mi Calm Calm - N/A   Partly Cloudy
1:53 AM 72.0 °F - 70.0 °F 93% 30.10 in 10.0 mi NE 4.6 mph - N/A   Partly Cloudy
2:21 AM 73.0 °F - 71.1 °F 93% 30.10 in 10.0 mi ENE 3.5 mph - N/A   Mostly Cloudy
2:53 AM 72.0 °F - 70.0 °F 93% 30.09 in 10.0 mi Calm Calm - N/A   Partly Cloudy
3:20 AM 72.0 °F - 71.1 °F 97% 30.09 in 10.0 mi Calm Calm - N/A   Mostly Cloudy
3:29 AM 72.0 °F - 71.1 °F 97% 30.09 in 10.0 mi NNE 3.5 mph - N/A   Overcast
3:38 AM 73.0 °F - 71.1 °F 93% 30.09 in 10.0 mi Calm Calm - N/A   Overcast
3:53 AM 73.0 °F - 71.1 °F 93% 30.07 in 10.0 mi Calm Calm - N/A   Overcast
4:53 AM 73.0 °F - 71.1 °F 93% 30.06 in 9.0 mi Calm Calm - N/A   Overcast
5:02 AM 73.0 °F - 71.1 °F 93% 30.08 in 9.0 mi Calm Calm - N/A   Overcast
5:35 AM 73.0 °F - 72.0 °F 96% 30.09 in 1.8 mi Calm Calm - N/A   Overcast
5:53 AM 73.0 °F - 72.0 °F 96% 30.09 in 0.5 mi Calm Calm - N/A Fog Fog
6:01 AM 73.0 °F - 72.0 °F 96% 30.09 in 0.2 mi Calm Calm - N/A Fog Fog
6:45 AM 73.0 °F - 72.0 °F 96% 30.10 in 0.2 mi Calm Calm - N/A Fog Fog
6:53 AM 73.0 °F - 72.0 °F 96% 30.09 in 0.2 mi Calm Calm - N/A Fog Fog
7:27 AM 73.9 °F - 73.0 °F 97% 30.11 in 0.2 mi Calm Calm - N/A Fog Fog
7:53 AM 73.9 °F - 73.0 °F 97% 30.11 in 0.2 mi Calm Calm - N/A Fog Fog
8:22 AM 73.9 °F - 73.0 °F 97% 30.12 in 0.2 mi Calm Calm - N/A Fog Fog
8:53 AM 75.0 °F - 73.9 °F 96% 30.12 in 0.5 mi Calm Calm - N/A Fog Fog
8:58 AM 75.0 °F - 73.9 °F 96% 30.13 in 2.5 mi ESE 3.5 mph - N/A   Overcast
9:05 AM 75.0 °F - 73.9 °F 96% 30.13 in 1.0 mi ESE 4.6 mph - N/A   Overcast
9:53 AM 75.9 °F - 73.9 °F 94% 30.13 in 1.0 mi ESE 3.5 mph - N/A   Overcast
10:26 AM 75.9 °F - 75.0 °F 97% 30.14 in 2.5 mi SE 3.5 mph - N/A   Overcast
10:48 AM 78.8 °F - 75.2 °F 89% 30.13 in 10.0 mi SE 5.8 mph - N/A   Overcast
10:53 AM 78.1 °F - 75.0 °F 90% 30.13 in 10.0 mi SE 5.8 mph - N/A   Overcast
11:27 AM 81.0 °F 86.7 °F 75.0 °F 82% 30.13 in 10.0 mi ESE 6.9 mph - N/A   Mostly Cloudy
11:39 AM 82.0 °F 87.9 °F 73.9 °F 76% 30.13 in 10.0 mi SE 8.1 mph - N/A   Scattered Clouds
11:46 AM 82.9 °F 89.4 °F 73.9 °F 74% 30.13 in 10.0 mi SE 9.2 mph - N/A   Mostly Cloudy
11:53 AM 82.0 °F 87.9 °F 73.9 °F 76% 30.12 in 10.0 mi East 9.2 mph - N/A   Mostly Cloudy
12:00 PM 82.9 °F 89.4 °F 73.9 °F 74% 30.12 in 10.0 mi SE 10.4 mph - N/A   Scattered Clouds
12:34 PM 84.0 °F 90.2 °F 73.0 °F 69% 30.11 in 10.0 mi SSE 5.8 mph - N/A   Mostly Cloudy
12:53 PM 84.9 °F 91.4 °F 73.0 °F 67% 30.09 in 10.0 mi SE 8.1 mph - N/A   Mostly Cloudy
1:53 PM 87.1 °F 94.5 °F 73.0 °F 63% 30.06 in 10.0 mi South 6.9 mph - N/A   Partly Cloudy
2:53 PM 87.1 °F 92.8 °F 71.1 °F 59% 30.04 in 10.0 mi Variable 4.6 mph - N/A   Partly Cloudy
3:53 PM 88.0 °F 93.8 °F 71.1 °F 57% 30.02 in 10.0 mi SE 8.1 mph - N/A   Scattered Clouds
4:53 PM 86.0 °F 91.5 °F 71.1 °F 61% 30.02 in 10.0 mi SE 4.6 mph - N/A   Partly Cloudy
5:53 PM 82.9 °F 88.8 °F 73.0 °F 72% 30.02 in 10.0 mi Calm Calm - N/A   Clear
6:53 PM 80.1 °F 84.5 °F 73.9 °F 81% 30.02 in 10.0 mi Calm Calm - N/A   Clear
7:53 PM 78.1 °F - 73.9 °F 87% 30.03 in 10.0 mi Calm Calm - N/A   Clear
8:53 PM 79.0 °F - 73.9 °F 84% 30.04 in 10.0 mi East 4.6 mph - N/A   Mostly Cloudy
9:53 PM 79.0 °F - 73.9 °F 84% 30.06 in 10.0 mi SSE 3.5 mph - N/A   Scattered Clouds
10:53 PM 77.0 °F - 73.0 °F 88% 30.06 in 10.0 mi SSE 3.5 mph - N/A   Clear
11:53 PM 75.9 °F - 73.0 °F 91% 30.07 in 10.0 mi Calm Calm - N/A   Clear